Flag for U.S.A. Weather past 2 weeks in Portland, Oregon, U.S.A.

Now
47 °F

Partly sunny.


Feels Like: 47 °F
Forecast: 42 / 54 °F
Wind: No wind

Location: Portland International Airport

Current Time: Apr 1, 2015 at 8:55:18 PM

Latest Report: Apr 1, 2015 at 7:53 PM


Visibility: 10 mi

Pressure: 30.32 "Hg

Humidity: 83%

Dew point: 42 °F

Location of PortlandLocation

Historic Weather in Portland — Graph

°F

Portland temperature yesterday

Maximum temperature yesterday: 56 °F (at 12:53 AM)
Minimum temperature yesterday: 44 °F (at 10:53 PM)
Average temperature yesterday: 50 °F

Past Weeks' High & Low Weather Summary

 TemperatureHumidityPressure
High73 °F (Mar 26, 4:53 PM)100% (Mar 17, 7:53 PM)30.39 "Hg (Mar 17, 7:53 PM)
Low42 °F (Apr 1, 3:53 AM)36% (Mar 29, 3:53 PM)29.77 "Hg (Mar 24, 12:53 AM)
Average53 °F79%30.15 "Hg
* Reported Mar 17 6:53 PM — Apr 1 6:53 PM, Portland, Weather by CustomWeather, © 2015

Note: Actual official high and low records may vary slightly from our data, if they occured in-between our weather recording intervals... More about our weather records

Advertising

Portland weather history for previous 24 hours

 ConditionsComfort  
Time TempWeatherWind HumidityBarometerVisibility
6:53 PM
Wed, Apr 1
47 °FLight rain. Partly sunny.5 mph86%30.32 "Hg10 mi
5:53 PM49 °FLight rain. Partly sunny.No wind69%30.32 "Hg10 mi
4:53 PM49 °FLight rain. Partly sunny.3 mph77%30.32 "Hg10 mi
3:53 PM45 °FLight rain. Cloudy.7 mph90%30.32 "Hg10 mi
2:53 PM48 °FBroken clouds.17 mph68%30.32 "Hg10 mi
1:53 PM54 °FPartly sunny.9 mph59%30.30 "Hg10 mi
12:53 PM53 °FPartly sunny.7 mph64%30.31 "Hg10 mi
11:53 AM50 °FBroken clouds.3 mph71%30.33 "Hg10 mi
10:53 AM49 °FBroken clouds.3 mph74%30.35 "Hg10 mi
9:53 AM47 °FMostly cloudy.3 mph83%30.35 "Hg10 mi
9:04 AM46 °FPartly sunny.3 mph86%30.34 "Hg10 mi
8:53 AM46 °FBroken clouds.5 mph86%30.34 "Hg10 mi
7:53 AM44 °FScattered clouds.No wind96%30.33 "Hg10 mi
6:53 AM43 °FPassing clouds.5 mph93%30.32 "Hg10 mi
5:53 AM44 °FLight rain. Passing clouds.6 mph96%30.31 "Hg10 mi
4:53 AM44 °FRain. Fog.3 mph96%30.32 "Hg4 mi
3:53 AM42 °FPassing clouds.5 mph96%30.30 "Hg9 mi
2:53 AM44 °FOvercast.No wind93%30.31 "Hg10 mi
1:53 AM45 °FOvercast.No wind97%30.30 "Hg10 mi
12:53 AM45 °FPartly cloudy.5 mph90%30.29 "Hg10 mi
11:53 PM
Tue, Mar 31
46 °FLight rain. Mostly cloudy.No wind86%30.28 "Hg10 mi
10:53 PM44 °FPartly cloudy.5 mph89%30.28 "Hg10 mi
9:53 PM46 °FPassing clouds.3 mph83%30.27 "Hg10 mi
8:53 PM46 °FPassing clouds.3 mph89%30.25 "Hg10 mi
Weather by CustomWeather, © 2015

See weather overviewHow to use our weather pages